Regional Weather Roundup
Issued by NWS Cleveland, OH

Home | Current Version | Previous Version | Text Only | Print | Product List | Glossary On
Versions: 1 2 3 4 5 6 7 8 9 10 11 12 13 14 15 16 17 18 19 20 21 22 23 24 25 26 27 28 29 30 31 32 33 34 35 36 37 38 39 40 41 42 43 44 45 46 47 48 49 50
000
ASUS41 KCLE 152012
RWRCLE
OHIO REGIONAL WEATHER ROUNDUP
NATIONAL WEATHER SERVICE WILMINGTON, OH
300 PM EST FRI DEC 15 2017

NOTE: "FAIR" INDICATES FEW OR NO CLOUDS BELOW 12,000 FEET WITH NO
SIGNIFICANT WEATHER AND/OR OBSTRUCTIONS TO VISIBILITY.

OHZ001>008-015>018-024>027-034-035-043-044-152100-
   NORTHWEST OHIO

CITY           SKY/WX    TMP DP  RH WIND       PRES   REMARKS
DEFIANCE       LGT SNOW  26  19  74 W13       29.89R WCI  15
FINDLAY        CLOUDY    28  19  69 W22G31    29.88S WCI  14
TOLEDO EXPRESS FLURRIES  27  21  78 W20G25    29.86R WCI  13
TOLEDO EXEC    LGT SNOW  27  20  75 SW20G26   29.87R WCI  13
LIMA           CLOUDY    27  21  78 W18       29.90S WCI  14
$$

OHZ009>014-019>023-028>033-038-089-152100-
   NORTHEAST OHIO

CITY           SKY/WX    TMP DP  RH WIND       PRES   REMARKS
CLE-HOPKINS    CLOUDY    27  19  72 SW12      29.87F WCI  17
CLE-LAKEFRONT  LGT SNOW  27  18  69 SW15G29   29.84F WCI  15
CUY CO. ARPT   LGT SNOW  27  18  69 SW17G23   29.83F WCI  14
LORAIN-ELYRIA  LGT SNOW  25  17  72 W16       29.86S VSB 1   WCI  12
ASHTABULA      LGT SNOW  24  16  71 SW13G23   29.82F WCI  12
AKRON-CANTON   FLURRIES  26  15  63 SW13      29.85S WCI  15
WOOSTER        CLOUDY    25  17  72 SW14      29.86S WCI  13
MANSFIELD      LGT SNOW  25  20  81 SW13G24   29.86R WCI  14
YOUNGSTOWN     FLURRIES  24  13  62 SW12      29.83F WCI  13
$$

OHZ042-051>053-060>062-070>072-077>081-152100-
  SOUTHWEST OHIO

CITY           SKY/WX    TMP DP  RH WIND       PRES   REMARKS
CINC-COVINGTON CLOUDY    32  21  64 SW15      29.98F WCI  22
CINC-LUNKEN    CLOUDY    34  21  59 SW12G21   30.02F WCI  25
HAMILTON       CLOUDY    32  21  64 SW14      30.00F WCI  22
DAYTON         CLOUDY    29  21  72 W21G32    29.95R WCI  16
WRIGHT-PAT AFB CLOUDY    30  20  67 SW15      29.94S WCI  19
DAYTON GENERAL CLOUDY    30  19  63 SW15G23   29.95S WCI  19
WILMINGTON     CLOUDY    30  20  66 SW15      29.94F WCI  19
$$

OHZ036-037-039>041-045>050-054>059-063>069-073>076-082>088-152100-
  CENTRAL AND SOUTHEAST OHIO

CITY           SKY/WX    TMP DP  RH WIND       PRES   REMARKS
COLUMBUS       FLURRIES  30  20  66 SW16      29.93S WCI  19
OSU AIRPORT    LGT SNOW  29  21  72 SW17      29.92S WCI  17
BOLTON FIELD   CLOUDY    30  19  64 W14G22    29.94S WCI  20
RICKENBACK AFB CLOUDY    30  18  61 W16       29.94F WCI  19
NEWARK         LGT SNOW  30  20  66 SW16G26   29.92R WCI  19
MARION         LGT SNOW  27  21  78 W15G22    29.91R WCI  15
LANCASTER      CLOUDY    30  18  60 SW16G29   29.94S WCI  19
ZANESVILLE     CLOUDY    30  15  53 W12       29.93R WCI  20
NEW PHILLY     CLOUDY    28  16  60 SW10      29.90F WCI  19
$$




USA.gov is the U.S. government's official web portal to all federal, state and local government web resources and services.